Regional Weather Roundup
Issued by NWS Grand Forks, ND

Home | Current Version | Previous Version | Graphics & Text | Print | Product List | Glossary On
Versions: 1 2 3 4 5 6 7 8 9 10 11 12 13 14 15 16 17 18 19 20 21 22 23 24 25 26 27 28 29 30 31 32 33 34 35 36 37 38 39 40 41 42 43 44 45 46 47 48 49 50
000
ASUS43 KFGF 190831
RWRFGF
PRAIRIE TO PINES  WEATHER ROUNDUP
NATIONAL WEATHER SERVICE EASTERN NORTH DAKOTA/GRAND FORKS ND
200 AM CST SUN NOV 19 2017

 **SATELLITE DATA USED TO AUGMENT SKY COVER AT AUTOMATED STATIONS**
 *****  WEATHER ACROSS EASTERN NORTH DAKOTA  *****

CITY           SKY/WX    TMP DP  RH WIND       PRES   REMARKS
GRAND FORKS    FAIR      11   7  84 SW6       30.02F WCI   1
GRAND FRKS AFB FAIR      10   5  80 W6        30.01F WCI   1
GRAND FRKS NWS   N/A     12 N/A N/A W6          N/A  WCI   3
DEVILS LAKE    FAIR      13  10  88 W5        29.96F WCI   5
FARGO          FAIR      12   8  84 CALM      30.05F
WAHPETON ARPT  NOT AVBL
$$

 ***** WEATHER ACROSS CENTRAL AND WESTERN NORTH DAKOTA  *****

CITY           SKY/WX    TMP DP  RH WIND       PRES   REMARKS
BISMARCK       FAIR      16  13  88 CALM      30.02F
MINOT          FAIR      21  16  81 SW8       29.94F WCI  11
JAMESTOWN      FAIR      13  10  88 SW5       29.98F WCI   5
MINOT AFB      FAIR      20  16  83 SW9       29.92F WCI  10
GARRISON         N/A     25  21  85 W9        29.96F WCI  15
WILLISTON      FAIR      22  18  85 E3        29.95F
DICKINSON      FAIR      26  20  77 S12       29.97F WCI  16
HETTINGER      FAIR      20  15  81 CALM      30.03F
$$

 *****  OTHER AIRPORT OBSERVATIONS IN OUR AREA  *****

CITY           SKY/WX    TMP DP  RH WIND       PRES   REMARKS
WALHALLA       FAIR      14   9  79 CALM      29.97S
GRAFTON AIRPOR NOT AVBL
VALLEY CITY AR NOT AVBL
CANDO          FAIR       7   7 100 SW6       29.96F WCI  -3
CAVALIER APRT  FAIR      12   7  79 W7        29.97F WCI   2
GWINNER          N/A     12  10  92 S6        30.03F WCI   3
SHEYENNE NWR     N/A      7   4  89 SW3       29.95
ROLLA          PTSUNNY   12   9  85 S5        29.90F WCI   4
 ***** THE ABOVE OBSERVATIONS ARE NON NWS ARE NOT QUALITY
       CONTROLLED AND MAY MIS-REPORT RAIN FOR SNOW...
$$

  *****  WEATHER ACROSS NORTHERN MINNESOTA  *****

CITY           SKY/WX    TMP DP  RH WIND       PRES   REMARKS
FLAG ISLAND    FAIR       9   1  72 W14       29.92F WCI  -8
WARROAD        FAIR       7   1  78 SW5       29.95S WCI  -2
ROSEAU         FAIR       9   3  78 SW6       29.96F WCI  -1
HALLOCK        FAIR       3   0  85 S5        29.99R WCI  -6
THF RVR FALLS  FAIR       9   5  84 W9        30.00F WCI  -4
BAUDETTE       FAIR       6   3  87 W5        29.94F WCI  -3
WASKISH        FAIR      12   7  79 W9        29.97S WCI   0
CROOKSTON      FAIR      10   7  85 SW5       30.03F WCI   2
STEPHEN NDAWN    N/A      9   3  78 SW5         N/A  WCI   0
GREENBUSH NDAW   N/A      9   3  78 SW5         N/A  WCI   0
$$
  *****  WEATHER ACROSS CENTRAL AND WEST MINNESOTA  *****

CITY           SKY/WX    TMP DP  RH WIND       PRES   REMARKS
FOSSTON        FAIR       7   3  85 SW7       30.00F WCI  -5
BEMIDJI        FAIR      10   5  83 SW7       29.98S WCI  -2
PARK RAPIDS    FAIR       8   3  80 W6        30.00S WCI  -2
ELBOW LAKE     FAIR      12   8  83 CALM      30.06F FOG
WADENA         FAIR      12   9  85 W6        30.02F WCI   3
DETROIT LAKES  FAIR      16  10  79 W3        30.02F
MOORHEAD       FAIR      12   7  79 CALM      30.05F
FERGUS FALLS   FAIR      10   7  85 CALM      30.09F
MORRIS MN      FAIR      12  10  92 W3        30.07F
STAPLES        FAIR      10   7  85 W7        30.03S WCI   0
$$
  *****  WEATHER ELSEWHERE ACROSS MINNESOTA  *****

CITY           SKY/WX    TMP DP  RH WIND       PRES   REMARKS
DULUTH         FLURRIES  13   7  77 NW13      29.93R WCI  -2
INTRNTL FALLS  FAIR       9   4  80 W9        29.93S WCI  -4
ELY            CLOUDY    12   7  79 W10G16    29.90R WCI  -1
CLOQUET        FAIR      14   7  73 W8        29.96R WCI   3
WHEATON        FAIR      14   9  79 S5        30.09F WCI   6
BRAINERD       FAIR      16   7  67 NW9       30.02R WCI   4
HIBBING        FAIR      10   5  80 W7        29.94S WCI  -1
ALEXANDRIA     FAIR      15  10  80 W10       30.06S WCI   2
SAINT CLOUD    FAIR      17  10  74 W9        30.06R WCI   6
MINNEAPOLIS    FAIR      20  11  68 NW10      30.07R WCI   9
$$

  *****  WEATHER ACROSS SOUTH DAKOTA  *****

CITY           SKY/WX    TMP DP  RH WIND       PRES   REMARKS
SIOUX FALLS    FAIR      21  16  81 W8        30.15S WCI  11
BROOKINGS      FAIR      19  16  86 SW3       30.11F
WATERTOWN      FAIR      17  14  88 W7        30.07F WCI   8
HURON          FAIR      22  16  78 SW9       30.13F WCI  12
SISSETON         N/A     21  15  78 W5        30.05F WCI  15
ABERDEEN       FAIR      13  10  88 S3        30.08F
MITCHELL       FAIR      24  19  81 SW8       30.17S WCI  15
PIERRE         FAIR      25  22  88 SW8       30.11F WCI  16
MOBRIDGE       FAIR      22  17  81 SE6       30.04F WCI  14
RAPID CITY     FAIR      22  14  71 NW6       30.10F WCI  14
$$

  *****  SOME WEATHER IN NEARBY STATES *****

CITY           SKY/WX    TMP DP  RH WIND       PRES   REMARKS
GLASGOW MT     FAIR      26  19  74 NW3       29.94F
GREAT FALLS MT FAIR      39  13  34 SW28G39   29.96F
CHEYENNE WY    FAIR      33   8  35 W8        30.19S
SCOTTSBLUFF NE FAIR      23  14  68 N8        30.19F WCI  14
OMAHA NE       FAIR      28  18  66 W6        30.22S WCI  22
DES MOINES IA  FAIR      28  19  69 NW10      30.14R WCI  19
DAVENPORT IA   FAIR      25  19  78 NW15G23   30.04R WCI  13
CHICAGO IL     CLOUDY    35  25  66 NW15      29.88R
EAU CLAIRE WI  FAIR      20  12  71 W13       29.99R WCI   7
LA CROSSE WI   FAIR      25  15  66 NW14      30.00S WCI  13
$$

  *****  SOME NATIONAL WEATHER *****

CITY           SKY/WX    TMP DP  RH WIND       PRES   REMARKS
LA GUARDIA NY  LGT RAIN  59  53  80 SW17G26   29.30F
RALEIGH NC     LGT RAIN  62  55  77 SW24G33   29.55S
ATLANTA GA     CLOUDY    49  42  77 NW22G31   29.87R
NEW ORLEANS LA MOCLDY    59  45  59 N18G28    30.06R
OKLAHOMA CITY  FAIR      36  26  67 NW8       30.30S
ALBUQUERQUE NM FAIR      36   7  29 CALM      30.35F
SALT LAKE CITY MOCLDY    32  24  72 CALM      30.34S
LOS ANGELES CA FAIR      66  27  23 N8        30.08S
BOISE ID       FAIR      33  23  66 S10       30.25F WCI  25
SEATTLE WA     CLOUDY    42  36  79 S5        30.10S
$$

*** WEATHER ACROSS MANITOBA...SASKATCHEWAN AND ONTARIO ***
                ***ONTARIO***

CITY           SKY/WX    TMP DP  RH WIND       PRES   REMARKS
GERALDTON      FLURRIES  10   5  79 NW9       29.77R WCI  -2
THUNDER BAY    CLOUDY    18  10  73 NW6       29.87R WCI   9
SIOUX LOOKOUT  FLURRIES  10   5  79 W10       29.84R WCI  -3
TORONTO        CLOUDY    34  32  93 N24G33    29.29R WCI  21
BIG TROUT LK   FLURRIES   9   3  78 W12G17    29.69S WCI  -6
PICKLE LAKE    NOT AVBL
DRYDEN         FLURRIES  10   7  85 W8        29.84F WCI  -1
KENORA         PTCLDY     3   1  92 W6        29.88S WCI  -8
$$
                *** MANITOBA***

CITY           SKY/WX    TMP DP  RH WIND       PRES   REMARKS
BRANDON        MOCLDY     7   3  85 W8        29.92F WCI  -6
DAUPHIN        CLOUDY    16   9  73 W10       29.90F WCI   3
ISLAND LAKE    FLURRIES   9   3  78 W14       29.73S WCI  -8
PILOT MOUND      N/A      5   1  85 S6          N/A  WCI  -6
THE PAS        PTCLDY     1  -4  78 W7        29.85F WCI -11
THOMPSON       FLURRIES  10   5  79 W13       29.68R WCI  -5
WINNIPEG       CLEAR      3  -2  78 W8        29.95F WCI -10
LYNN LAKE      FLURRIES   7   5  92 NW13G20   29.70R WCI  -9
CHURCHILL      FLURRIES   9   5  85 W15G22    29.43S WCI  -8
GILLAM         LGT SNOW   9   3  78 W16G25    29.59S WCI  -9
$$
                ***SASKATCHEWAN***

CITY           SKY/WX    TMP DP  RH WIND       PRES   REMARKS
ESTEVAN        CLOUDY    19  16  86 SW9       29.88F WCI   9
KINDERSLEY     PTCLDY    14  12  92 SW10      29.80S WCI   1
LLOYDMINSTER   CLOUDY    21  18  86 W8        29.76S WCI  12
PRINCE ALBERT  PTCLDY     1   0  92 VRB2      29.85R
REGINA         CLOUDY    14  10  85 S6        29.83F WCI   5
YORKTON        CLOUDY    12   7  79 S6        29.84F WCI   3
N. BATTLEFORD  MOCLDY    14   7  73 NW5       29.83R WCI   6
LA RONGE       CLOUDY     9   1  72 W6        29.87S WCI  -1
SASKATOON      MOCLDY    10   7  85 S3        29.81F
SWIFT CURRENT  CLEAR     30  21  69 W18       29.80F WCI  18
$$
NOTE: THESE ARE AUTOMATED STATIONS WITH LIMITED QUALITY CONTROL
      "FAIR" INDICATES FEW OR NO CLOUDS BELOW 12,000 FEET WITH NO
      SIGNIFICANT WEATHER AND/OR OBSTRUCTIONS TO VISIBILITY.
      SKY/WX - SKY CONDITION AND SIGNIFICANT WEATHER.
      TMP - AIR TEMPERATURE.    DP   - DEWPOINT TEMPERATURE.
      RH  - RELATIVE HUMIDITY.  PRES - PRESSURE.
      HX  - HEAT INDEX.         WCI  - WIND CHILL INDEX.
$



USA.gov is the U.S. government's official web portal to all federal, state and local government web resources and services.